Regional Weather Roundup
Issued by NWS

Home | Current Version | Previous Version | Text Only | Print | Product List | Glossary Off
Versions: 1 2 3 4 5 6 7 8 9 10 11 12 13 14 15 16 17 18 19 20 21 22 23 24 25 26 27 28 29 30 31 32 33 34 35 36 37 38 39 40 41 42 43 44 45 46 47 48 49 50

398
ASUS43 KFSD 210302
RWRSD

WEATHER ROUNDUP FOR SOUTH DAKOTA
NATIONAL WEATHER SERVICE SIOUX FALLS SD
1000 PM CDT THU JUL 20 2017

NOTE: "FAIR" INDICATES FEW OR NO CLOUDS BELOW 12,000 FEET WITH NO
SIGNIFICANT WEATHER AND/OR OBSTRUCTIONS TO VISIBILITY.


SDZ001>005-009-010-012>017-210400-
NORTHWEST AND NORTH CENTRAL SOUTH DAKOTA

CITY           SKY/WX    TMP DP  RH WIND       PRES   REMARKS
BUFFALO          N/A     74  61  63 E17       29.83R
FAITH            N/A     73  61  65 NE21      29.91F
MOBRIDGE       CLOUDY    81  66  60 E17       29.84S
$$

SDZ012>016-024>037-041>051-057-063-072>074-210400-
SOUTHWEST AND SOUTH CENTRAL SOUTH DAKOTA

CITY           SKY/WX    TMP DP  RH WIND       PRES   REMARKS
RAPID CTY ARPT CLOUDY    81  58  45 SE8       29.87R
PIERRE         NOT AVBL
CUSTER         CLOUDY    77  53  43 S12G17    30.06R
PHILIP         PTCLDY    87  59  38 S8        29.83R
PINE RIDGE     PTCLDY    81  63  54 SE9       29.91F
SPEARFISH      FAIR      81  54  39 W9G16     29.94R
WINNER         FAIR      83  65  54 SE8       29.90R
$$

SDZ004>011-016>023-039-040-210400-
NORTHEAST SOUTH DAKOTA

CITY           SKY/WX    TMP DP  RH WIND       PRES   REMARKS
ABERDEEN       PTCLDY    75  67  76 SE8       29.90R
WATERTOWN      CLEAR     75  66  73 SE8       29.95R
BROOKINGS      CLOUDY    77  66  68 E10       29.96R
SISSETON         N/A     71  68  90 SE3       29.92R
$$

SDZ017-020-022-023-036>040-048>070-210400-
SOUTHEAST SOUTH DAKOTA

CITY           SKY/WX    TMP DP  RH WIND       PRES   REMARKS
SIOUX FALLS    CLOUDY    78  70  76 E7        29.94R
HURON          PTCLDY    79  70  74 SE10      29.90R
CHAMBERLAIN    PTCLDY    82  71  71 E8        29.90R
MITCHELL       PTCLDY    79  73  82 SE7       29.90R
YANKTON        CLEAR     79  75  87 E6        29.91R
$$

ABBREVIATIONS USED IN REMARKS
   TC - TEMPERATURE IN CELSIUS
  WCI - WIND CHILL INDEX
   HX - HEAT INDEX
  VSB - VISIBILITY





USA.gov is the U.S. government's official web portal to all federal, state and local government web resources and services.